Find Xingyi Lianxin Shou xing

NORAD ID: 58920 Int'l Des: NNA 2024-024 Owner: GUOX/ZYD Country: CN decayed
LEOCIRCULARRETROGRADE

Re-entered — N/A

正在加载3D地球...

About Xingyi Lianxin Shou xing

Xingyi Lianxin Shou xing (NORAD 58920) is a satellite launched Feb 3, 2024 by GUOX/ZYD of CN. It operates in LEO, CIRCULAR, RETROGRADE orbit with a mass of 25.00 kg. Last tracked position: Aug 29, 2025.

高度历史

Loading altitude history...

两行轨道根数

1 58920U 24024D 25241.76751780 .11774272 24781-5 70736-3 0 9995
2 58920 97.3142 330.9371 0011286 286.1594 73.8464 16.40979217 88364
Epoch: Aug 29, 2025 • Age: 6852 hours

当前状态

Position data unavailable
发射日期 Feb 3, 2024
运行时间 2.3 years
类型 other

技术详情

分类 Payload
质量 25.00 kg
干质量 25.00 kg
总质量 25.00 kg
长度 0.30 m
直径 0.30 m
跨度 0.30 m
形状 Box + 3 pan
制造商 WEINA/GUOX
平台类型 XSD
阶段状态 In Orbit
所有者/国家 GUOX/ZYD/CN

Most Searched